Hourly Data Report for May 05, 2003

SHERBROOKE A
QUEBEC

45°26'00.000" N
71°41'00.000" W
241.40 m
7028124
71610
YSC

Download Data

Hourly Data (May 2003)
Hourly Data Report for May 5, 2003
TIME
LST
Temp Definition
°C
Dew Point Definition
°C
Rel Hum Definition
%
Precip. Amount Definition
mm

Wind Dir Definition
10's deg

Wind Spd Definition
km/h
Visibility Definition
km
Stn Press Definition
kPa
Hmdx Definition


Wind Chill Definition


Weather Definition


00:00 3.7 0.7 81   8 7 15.0 99.16      
01:00 2.7 0.3 84   9 6 15.0 99.11      
02:00 2.8 -0.4 79   9 7 15.0 99.07      
03:00 2.3 -0.6 81   8 6 15.0 99.11      
04:00 1.5 -1.1 83   8 7 15.0 99.07      
05:00 1.8 -1.1 81   7 7 15.0 99.19      
06:00 4.6 0.9 77   7 7 15.0 99.30      
07:00 7.7 1.2 63   7 9 24.1 99.34     Mainly Clear
08:00 11.9 0.8 46   6 4 24.1 99.29     Mainly Clear
09:00 15.2 1.6 40   24 4 24.1 99.26     Mainly Clear
10:00 17.7 1.9 35     0 24.1 99.21     Mainly Clear
11:00 19.6 1.0 29   18 6 24.1 99.13     Mainly Clear
12:00 20.9 -0.6 24   30 6 24.1 99.06     Mainly Clear
13:00 21.4 -0.9 22   29 11 24.1 98.97     Mostly Cloudy
14:00 21.5 0.3 24   21 11 24.1 98.90     Mostly Cloudy
15:00 21.5 -2.6 20   29 6 24.1 98.81     Mostly Cloudy
16:00 21.2 -2.6 20   6 4 24.1 98.79     Cloudy
17:00 20.5 -0.5 24     0 15.0 98.77      
18:00 18.6 0.8 30   5 11 15.0 98.72      
19:00 16.8 1.5 36   4 7 15.0 98.70      
20:00 15.5 1.9 40   6 7 15.0 98.68      
21:00 14.7 1.9 42   6 6 15.0 98.72      
22:00 12.4 3.3 54   5 6 15.0 98.73      
23:00 12.4 2.7 52     0 15.0 98.75      

Notes on Data Quality.

Legend

  • E = Estimated
  • M = Missing
  • NA = Not Available*
  • [empty] = Indicates an unobserved value
Date modified: